Total_Precipitation_Accumulation
0.94 0.92 0.86 0.93 0.90 1.05 1.24 1.48 1.44 1.66 1.70 1.55 1.34 1.19 1.16 1.10 0.95 1.06 1.16 1.12 1.13 1.30 1.89 2.24 2.20 2.06 1.81 1.52 1.35 1.27 1.19 1.02 0.85 0.63 0.55 0.56 0.59 0.64 0.56 0.43 0.36 0.29 0.23
1.47 1.36 1.18 1.21 1.13 1.24 1.52 1.73 1.70 1.99 1.88 1.80 1.47 1.36 1.24 1.14 1.08 1.21 1.30 1.36 1.37 1.46 1.75 2.15 2.38 2.31 2.07 1.75 1.49 1.31 1.26 1.20 1.07 0.79 0.63 0.60 0.64 0.69 0.65 0.56 0.45 0.35 0.27
1.81 1.67 1.46 1.37 1.46 1.60 1.79 1.83 1.88 2.07 1.89 1.82 1.62 1.49 1.29 1.13 1.09 1.24 1.38 1.50 1.37 1.37 1.60 1.92 2.22 2.22 2.07 1.89 1.66 1.52 1.39 1.30 1.25 1.01 0.74 0.63 0.62 0.66 0.66 0.64 0.53 0.40 0.27
1.93 1.97 1.71 1.52 1.77 1.90 2.02 2.10 2.07 2.07 2.02 1.93 1.77 1.47 1.32 1.17 1.02 1.11 1.18 1.30 1.36 1.11 1.30 1.75 1.86 1.78 1.86 1.94 1.93 1.97 1.85 1.59 1.46 1.21 0.92 0.75 0.70 0.70 0.68 0.66 0.57 0.41 0.25
1.98 2.18 1.95 1.88 2.04 2.21 2.14 2.01 2.23 2.30 2.13 2.02 1.76 1.58 1.24 1.09 1.02 1.00 1.03 1.05 1.17 1.14 1.06 1.20 1.54 1.50 1.68 2.00 2.16 2.30 2.31 2.11 1.82 1.54 1.25 1.04 0.95 0.85 0.73 0.68 0.61 0.43 0.28
2.10 2.33 2.10 2.11 2.28 2.37 2.36 2.36 2.40 2.36 2.21 2.19 1.89 1.59 1.28 1.02 0.98 0.94 0.88 0.90 0.90 0.80 0.80 0.86 1.02 0.99 1.16 1.46 1.77 2.11 2.42 2.57 2.34 1.93 1.74 1.59 1.45 1.19 0.89 0.70 0.58 0.49 0.36
2.08 2.32 2.06 2.33 2.46 2.40 2.43 2.44 2.55 2.41 2.24 2.37 2.19 1.68 1.22 0.94 0.80 0.71 0.72 0.75 0.69 0.74 0.84 0.99 1.11 1.16 1.08 1.08 1.22 1.53 2.07 2.59 2.67 2.38 2.25 2.17 2.03 1.67 1.15 0.85 0.60 0.48 0.43
2.04 2.17 2.41 2.46 2.53 2.50 2.49 2.44 2.44 2.23 2.02 2.26 2.22 1.95 1.40 1.04 0.79 0.67 0.75 0.71 0.72 0.80 0.81 0.86 1.04 1.22 1.18 1.18 1.19 1.10 1.61 2.29 2.63 2.71 2.79 2.78 2.58 2.02 1.43 1.07 0.72 0.53 0.47
2.16 2.29 2.44 2.51 2.42 2.34 2.34 2.42 2.32 2.17 1.98 2.02 2.16 2.09 1.62 1.16 0.86 0.68 0.72 0.76 0.91 0.94 0.83 0.78 0.74 0.74 0.81 1.03 1.34 1.25 1.25 1.46 1.85 2.51 2.99 3.20 2.84 2.04 1.49 1.23 1.02 0.73 0.54
1.93 2.04 2.11 2.26 2.31 2.30 2.24 2.20 2.15 2.14 2.03 1.89 2.04 2.03 1.85 1.55 1.29 0.86 0.66 0.67 0.83 0.87 0.84 0.74 0.69 0.68 0.73 0.96 1.23 1.19 1.03 0.88 0.92 1.48 2.19 2.51 2.36 1.81 1.44 1.34 1.36 1.14 0.76
1.79 1.78 1.88 2.06 2.12 2.04 2.01 2.14 2.26 2.21 2.04 1.87 1.92 1.95 2.01 1.90 1.61 1.27 0.87 0.77 0.75 0.68 0.75 0.73 0.67 0.67 0.75 0.93 1.08 0.95 0.93 0.76 0.66 0.75 1.10 1.47 1.65 1.53 1.36 1.43 1.64 1.62 1.29
1.73 1.67 1.69 1.80 1.86 1.84 1.80 1.83 1.92 1.94 1.90 1.94 1.94 1.93 1.96 1.89 1.76 1.65 1.27 1.03 0.88 0.63 0.63 0.64 0.66 0.66 0.71 0.79 0.75 0.77 0.77 0.65 0.58 0.56 0.62 0.80 1.01 1.13 1.20 1.38 1.65 1.77 1.71
1.67 1.64 1.58 1.53 1.53 1.55 1.63 1.76 1.76 1.77 1.83 1.91 1.90 1.92 1.84 1.75 1.77 1.72 1.52 1.25 1.06 0.75 0.72 0.64 0.62 0.64 0.61 0.71 0.74 0.77 0.67 0.55 0.51 0.50 0.53 0.57 0.67 0.78 0.92 1.11 1.40 1.65 1.79
1.62 1.51 1.38 1.33 1.32 1.34 1.42 1.57 1.72 1.72 1.79 1.82 1.79 1.79 1.69 1.61 1.70 1.63 1.56 1.53 1.35 1.16 1.09 0.91 0.69 0.62 0.63 0.64 0.65 0.66 0.58 0.55 0.48 0.42 0.40 0.43 0.52 0.60 0.71 0.88 1.06 1.19 1.33
1.34 1.30 1.27 1.25 1.21 1.23 1.27 1.29 1.42 1.43 1.50 1.55 1.63 1.59 1.48 1.48 1.55 1.57 1.61 1.64 1.54 1.40 1.35 1.20 0.87 0.67 0.66 0.67 0.72 0.58 0.49 0.46 0.45 0.42 0.34 0.34 0.37 0.45 0.53 0.64 0.79 0.93 0.98
1.22 1.16 1.17 1.17 1.11 1.09 1.10 1.12 1.16 1.22 1.19 1.24 1.41 1.43 1.39 1.41 1.50 1.52 1.55 1.64 1.70 1.67 1.48 1.30 1.10 0.85 0.81 0.71 0.72 0.63 0.55 0.48 0.41 0.37 0.29 0.27 0.30 0.35 0.44 0.52 0.60 0.71 0.78
1.15 1.16 1.13 1.08 0.99 0.92 0.91 0.92 0.94 1.04 1.04 1.03 1.11 1.14 1.18 1.27 1.39 1.45 1.47 1.50 1.66 1.81 1.67 1.57 1.43 1.29 1.12 0.93 0.74 0.67 0.57 0.47 0.42 0.37 0.29 0.26 0.27 0.30 0.36 0.44 0.52 0.59 0.66
0.89 0.91 0.91 0.97 1.00 0.98 0.94 0.92 0.88 0.87 0.91 0.92 0.99 1.08 1.13 1.25 1.32 1.30 1.40 1.47 1.62 1.80 1.87 1.97 2.02 1.74 1.40 1.13 0.98 0.81 0.56 0.41 0.41 0.36 0.30 0.27 0.25 0.26 0.28 0.35 0.43 0.55 0.64
0.80 0.79 0.81 0.83 0.85 0.93 1.04 1.05 1.02 1.01 1.03 0.94 0.99 1.08 1.07 1.10 1.16 1.17 1.27 1.41 1.56 1.67 1.79 1.87 2.00 1.82 1.58 1.27 1.18 0.96 0.72 0.61 0.41 0.36 0.29 0.26 0.26 0.28 0.28 0.33 0.40 0.48 0.58
0.81 0.79 0.75 0.76 0.78 0.79 0.86 0.99 1.04 1.03 0.99 0.93 0.92 0.92 0.90 0.89 0.95 1.01 1.07 1.21 1.37 1.47 1.56 1.59 1.70 1.76 1.75 1.68 1.54 1.28 1.07 0.86 0.67 0.48 0.43 0.31 0.28 0.27 0.28 0.30 0.36 0.44 0.55
0.75 0.79 0.72 0.68 0.73 0.77 0.76 0.78 0.88 0.91 0.88 0.85 0.85 0.77 0.67 0.69 0.74 0.76 0.82 0.99 1.12 1.23 1.35 1.43 1.56 1.71 1.78 1.82 1.66 1.51 1.34 1.18 0.95 0.83 0.85 0.66 0.53 0.42 0.36 0.35 0.36 0.39 0.47
0.71 0.71 0.65 0.63 0.63 0.58 0.62 0.59 0.60 0.67 0.69 0.68 0.71 0.71 0.63 0.56 0.54 0.57 0.60 0.68 0.79 0.91 1.09 1.29 1.46 1.64 1.71 1.65 1.71 1.65 1.54 1.41 1.27 1.14 1.11 1.15 1.08 0.94 0.74 0.54 0.50 0.44 0.40
0.68 0.66 0.61 0.56 0.54 0.52 0.46 0.41 0.41 0.50 0.56 0.55 0.56 0.60 0.54 0.49 0.45 0.41 0.48 0.57 0.59 0.64 0.72 0.98 1.21 1.28 1.29 1.26 1.43 1.58 1.50 1.42 1.43 1.33 1.27 1.38 1.34 1.21 0.95 0.79 0.67 0.52 0.44
0.65 0.65 0.60 0.56 0.57 0.54 0.46 0.38 0.34 0.33 0.43 0.50 0.49 0.50 0.50 0.50 0.46 0.43 0.42 0.48 0.47 0.46 0.47 0.54 0.65 0.74 0.87 0.96 1.12 1.38 1.56 1.47 1.46 1.42 1.36 1.53 1.50 1.41 1.18 0.94 0.77 0.57 0.49
0.60 0.59 0.61 0.62 0.60 0.55 0.44 0.36 0.34 0.38 0.43 0.45 0.46 0.47 0.47 0.48 0.48 0.44 0.40 0.41 0.42 0.43 0.41 0.41 0.43 0.53 0.66 0.75 0.85 1.00 1.19 1.41 1.66 1.66 1.43 1.52 1.55 1.55 1.58 1.30 0.98 0.78 0.60
0.63 0.58 0.60 0.63 0.60 0.62 0.47 0.31 0.28 0.37 0.47 0.49 0.55 0.55 0.46 0.41 0.40 0.33 0.31 0.35 0.35 0.35 0.34 0.36 0.38 0.40 0.47 0.58 0.64 0.73 0.80 0.99 1.24 1.43 1.38 1.42 1.59 1.79 1.96 1.69 1.24 0.91 0.75